RH
98 96 90 93 99 93 90 89 90 97 94 96 96 96 98 98 91 96 100 100 100 100 100 95 96 95 100 100 99 98 93 96 100 100 100 100 100 99 99 98 100 99 99 99
99 100 97 93 95 84 94 96 96 92 93 96 98 98 97 98 93 99 100 100 97 100 100 100 98 100 99 99 99 100 99 98 97 95 93 93 96 98 100 98 99 99 99 100
97 78 78 78 98 96 89 92 94 84 94 96 93 89 97 98 99 100 100 100 99 100 100 100 98 98 99 100 100 99 98 100 100 99 99 97 95 95 96 100 99 100 100 100
97 93 89 93 80 80 85 90 91 86 91 88 93 99 97 97 98 100 100 100 99 98 96 96 90 92 97 97 98 97 97 96 97 100 99 99 99 100 96 96 100 99 98 100
98 94 95 85 87 93 92 95 94 96 95 96 99 97 98 97 97 98 98 100 100 100 99 98 99 92 89 90 92 95 96 98 99 98 99 99 98 99 100 99 98 98 100 99
96 86 95 92 82 88 81 92 90 88 91 95 97 89 94 98 96 94 94 99 100 99 97 94 97 100 89 82 85 92 95 96 96 96 99 99 99 98 100 99 99 100 99 98
96 90 92 89 95 99 91 99 94 95 98 94 93 98 97 96 93 91 91 93 98 97 96 97 92 96 95 94 88 82 85 88 90 91 93 96 99 99 99 99 100 100 99 100
95 90 89 99 93 82 99 99 97 92 96 100 99 97 94 95 93 90 91 90 95 95 98 96 92 88 88 88 93 89 81 78 83 88 90 91 92 93 95 95 94 95 98 98
95 94 99 100 100 100 95 98 97 92 94 83 87 91 92 91 90 89 89 89 90 89 90 90 87 87 85 91 89 86 83 79 77 78 82 86 86 88 89 90 89 89 87 88
91 96 96 99 98 98 95 98 100 96 94 90 86 93 94 92 90 88 86 87 89 88 89 91 91 89 88 87 87 85 83 83 81 77 76 77 78 83 85 89 91 92 93 92
95 96 98 98 96 98 91 88 89 95 94 90 91 92 94 93 91 88 87 87 87 90 93 93 91 88 86 84 82 84 84 86 87 86 84 84 87 92 95 100 100 99 99 94
97 85 94 98 96 97 91 81 83 83 86 90 92 91 92 90 92 91 87 82 78 79 88 92 92 89 86 82 80 83 85 88 90 90 90 90 90 92 96 99 100 96 94 95
98 97 90 90 91 75 73 76 76 75 77 77 80 86 89 92 94 94 89 76 69 66 62 63 73 81 81 78 70 60 62 73 78 80 85 87 86 86 87 90 90 93 94 92
89 88 95 100 90 77 75 78 81 82 84 84 85 87 88 90 92 87 80 76 63 52 48 43 38 45 61 66 69 68 70 67 60 64 73 82 83 81 79 74 72 75 86 88
84 89 75 79 86 81 81 84 87 90 89 84 84 83 83 83 82 82 79 73 59 43 38 35 33 32 33 42 56 62 68 69 74 72 70 81 89 87 78 67 62 63 78 77
74 72 76 79 82 86 88 88 89 89 86 86 86 86 85 80 71 66 60 55 59 62 58 48 41 35 34 36 42 54 61 66 67 72 83 79 83 90 84 78 74 69 60 50
78 88 86 87 88 86 81 77 78 78 79 81 81 81 77 60 48 46 49 58 65 75 75 68 60 53 46 41 38 46 63 71 68 66 73 89 94 95 91 92 89 85 75 70
88 95 94 92 89 83 76 75 73 72 73 73 71 64 57 52 52 57 60 67 77 87 76 66 57 50 41 35 36 38 52 71 79 76 81 87 95 96 97 96 95 95 93 90
87 93 95 91 86 77 71 67 68 69 69 67 62 58 59 66 69 71 74 68 60 56 59 60 57 46 37 34 34 40 54 77 86 83 88 93 96 98 100 100 100 97 97 97
79 82 84 81 77 72 66 67 68 68 67 64 66 68 68 66 60 59 60 60 63 68 63 61 56 50 42 41 45 47 67 87 87 80 81 91 96 97 100 100 100 100 100 100
70 74 78 76 69 65 65 66 67 69 70 68 58 58 60 70 77 76 75 76 77 78 74 70 61 56 57 58 55 62 75 88 86 89 92 96 100 100 100 100 100 100 100 100
68 71 66 63 63 65 67 66 63 66 62 66 73 76 79 82 87 87 91 92 90 89 85 77 68 63 65 70 70 72 91 92 84 87 99 100 98 98 100 100 100 100 100 100
62 62 62 64 65 64 58 55 59 67 76 77 77 80 78 81 94 96 86 93 100 99 94 84 77 75 76 81 82 81 85 92 97 94 94 99 100 100 99 100 100 100 99 100
61 62 63 65 64 64 74 80 80 80 78 79 85 87 83 84 76 80 78 74 99 100 98 90 85 88 92 93 93 93 98 99 96 96 98 100 98 96 100 100 100 100 100 97
64 64 65 65 71 76 70 77 78 83 86 90 94 94 94 92 86 79 75 66 82 100 100 92 88 89 95 97 95 96 98 94 94 96 92 96 100 100 100 100 99 99 100 100
65 66 68 73 73 75 80 83 86 90 94 94 93 93 88 86 84 85 83 80 89 98 96 93 96 100 96 96 100 97 95 95 95 93 97 95 96 100 100 100 100 100 100 100
70 72 79 81 82 84 92 93 91 96 97 90 74 76 88 92 91 92 93 93 93 98 98 95 92 94 97 96 92 100 100 100 100 99 90 91 99 100 100 100 100 99 100 100
Wind_Speed
7 9 11 21 16 14 15 9 6 6 9 9 10 11 15 18 24 27 31 37 35 35 36 35 33 31 30 33 34 33 28 24 22 17 14 10 6 6 8 13 17 20 22 27
3 3 5 17 21 18 13 12 11 11 8 7 10 13 19 21 24 27 27 27 32 30 30 30 30 27 27 30 32 32 35 33 28 25 21 17 14 11 7 9 14 22 23 27
1 6 9 4 10 14 11 18 5 5 4 5 9 16 21 20 23 24 24 24 26 28 29 29 31 28 28 28 27 29 30 31 33 32 31 28 21 19 16 8 5 6 8 22
2 1 4 2 7 6 17 14 11 10 7 10 14 19 23 21 23 23 22 22 23 25 27 26 29 29 25 23 25 28 28 28 29 30 31 31 29 27 23 19 15 12 8 5
1 2 3 2 7 6 6 8 12 6 2 5 8 5 23 18 19 20 20 18 18 20 20 21 25 29 29 29 28 27 28 28 28 26 27 28 29 28 27 24 22 21 19 15
1 1 2 4 11 8 7 4 11 11 9 10 0 4 3 14 17 19 20 19 17 19 20 22 24 23 28 33 33 33 30 27 24 24 25 25 25 25 24 23 22 19 20 19
4 3 3 8 12 5 2 1 9 11 14 17 6 7 7 9 15 18 19 18 16 18 21 22 22 23 26 28 33 31 28 26 25 24 23 23 21 21 22 22 21 22 23 23
2 3 1 18 3 3 6 7 8 10 10 13 13 11 9 11 15 18 18 17 17 18 19 20 22 22 25 28 24 24 25 26 27 26 25 22 21 20 20 19 20 22 24 25
5 2 5 11 14 11 8 10 7 8 6 7 8 8 9 13 16 17 17 17 17 18 18 19 21 22 23 23 22 21 22 24 25 25 24 23 23 22 22 21 22 22 22 23
1 3 6 8 9 9 10 11 8 6 5 4 6 5 7 9 12 14 15 15 14 14 17 19 20 20 21 20 20 21 21 23 23 23 23 23 22 22 21 22 22 22 21 21
3 6 7 8 7 9 11 9 8 7 5 4 3 3 6 8 9 10 11 12 13 14 15 17 18 20 20 20 21 21 21 22 22 22 22 21 20 20 19 19 18 18 18 18
1 9 5 6 8 6 6 8 6 4 4 3 3 4 5 6 7 9 10 12 12 14 13 15 17 17 18 20 20 20 21 21 21 20 20 18 18 17 16 14 13 14 13 13
5 6 12 14 10 6 7 7 6 4 5 5 5 4 4 4 5 6 8 11 13 14 15 14 15 15 16 17 19 20 20 19 18 18 18 18 17 16 16 15 13 12 12 12
14 16 11 9 6 7 4 5 4 4 4 4 4 4 5 5 5 7 10 12 12 13 13 14 14 14 14 14 15 16 17 18 18 18 17 16 17 18 18 17 14 11 10 11
6 5 8 9 11 7 4 1 0 1 2 3 4 5 6 7 7 8 9 10 12 12 12 13 14 14 14 14 14 15 16 16 16 16 16 15 15 16 16 16 15 13 11 11
11 9 10 10 10 6 3 2 1 2 3 4 4 4 5 7 7 7 8 10 11 14 15 16 16 16 16 15 14 14 14 15 15 16 15 14 14 14 15 15 14 14 13 13
14 10 9 9 7 4 2 1 2 3 4 4 4 4 6 7 8 8 9 11 13 14 16 17 17 17 17 17 16 15 14 15 15 15 15 14 13 13 13 13 13 14 15 14
7 6 6 5 5 3 3 3 4 4 5 4 5 5 7 8 8 10 11 12 12 13 15 17 18 18 18 18 16 15 14 14 14 14 13 12 11 12 11 11 11 12 12 13
5 5 7 7 5 4 4 4 5 4 5 5 5 5 6 7 9 10 11 13 13 15 16 20 22 23 22 19 17 15 14 14 14 13 13 11 10 10 10 9 10 10 10 11
7 7 6 6 6 5 5 6 5 4 3 3 4 5 7 8 10 11 12 12 13 17 20 23 24 23 21 19 17 14 13 13 13 13 13 12 10 8 9 9 10 10 9 9
6 8 8 7 8 8 7 4 3 2 2 3 4 5 6 9 11 12 14 14 15 17 20 22 25 24 21 19 16 14 13 13 13 13 12 12 10 8 8 9 11 12 11 10
8 10 9 9 7 5 4 2 1 1 2 4 7 9 12 14 16 17 16 18 17 18 20 22 23 22 20 18 17 14 13 15 16 14 12 11 11 10 11 12 12 11 12 12
11 10 8 7 6 4 3 3 3 3 4 8 9 12 16 17 17 18 20 20 20 20 19 19 20 19 18 17 17 16 13 13 14 15 14 13 12 12 11 9 9 10 10 10
11 10 8 6 5 4 1 2 4 6 7 9 12 16 18 19 21 19 19 20 18 19 17 17 19 18 17 17 17 17 16 16 15 16 16 14 13 12 9 10 13 12 11 10
10 8 7 6 4 2 1 3 5 7 10 12 16 18 19 20 21 21 22 21 16 15 16 17 18 17 17 17 17 18 17 17 16 16 16 15 13 13 12 13 13 12 12 10
9 7 7 6 2 2 5 7 9 10 13 17 20 19 18 17 18 20 19 17 15 13 16 18 17 18 19 20 21 20 20 19 18 18 16 14 13 13 14 15 15 15 12 12
10 8 6 4 3 5 8 11 11 13 17 19 20 17 17 18 18 20 20 19 18 18 20 22 22 23 23 25 25 24 24 23 22 21 17 15 15 15 15 14 13 12 9 13
Wind_Direction
88 50 19 34 36 57 65 51 52 87 75 45 29 26 24 33 28 29 29 30 31 31 33 38 38 43 45 46 44 44 45 45 42 36 32 24 1 315 279 272 260 257 260 268
250 295 8 38 30 40 62 88 87 87 78 47 36 36 35 34 31 32 31 30 32 31 34 35 35 37 43 47 48 45 46 47 49 43 38 35 27 15 339 298 281 262 252 248
291 346 317 19 11 32 49 37 41 72 64 72 50 41 30 36 32 30 29 27 30 32 35 36 34 35 39 43 47 49 49 47 47 51 49 45 41 40 37 8 340 258 218 216
268 132 32 256 5 35 70 42 52 87 95 99 93 68 44 39 36 30 25 25 30 31 32 34 40 40 41 43 45 45 46 46 45 45 50 53 50 48 48 46 45 40 16 6
279 63 119 17 17 347 356 51 26 39 84 146 149 62 40 50 32 28 25 28 33 34 34 33 42 41 44 46 46 43 41 38 40 43 45 45 49 49 48 45 44 47 48 36
76 116 155 50 328 325 304 67 27 32 28 32 137 69 37 28 25 26 27 28 31 35 38 37 39 40 41 43 42 40 38 38 36 39 44 44 42 43 50 53 53 51 50 50
359 93 97 353 319 316 302 7 39 48 47 58 81 91 103 37 28 25 23 26 32 35 37 35 34 40 44 41 39 36 37 40 42 42 43 44 45 45 44 47 54 57 58 56
342 55 25 356 6 56 106 87 82 69 66 76 95 92 64 39 28 27 26 31 35 36 37 36 36 36 40 41 37 36 36 39 42 43 44 46 47 49 48 46 48 49 53 56
6 74 54 36 64 79 105 118 101 104 98 90 88 68 36 22 21 21 23 28 31 35 36 36 35 33 36 35 32 34 35 38 40 40 43 45 46 48 51 50 50 50 48 47
185 96 78 68 81 85 85 97 110 107 110 85 77 53 34 22 18 20 22 24 27 32 36 36 34 34 35 31 30 29 31 34 35 36 37 40 42 44 45 47 45 46 48 50
76 112 103 86 94 120 98 94 96 107 105 82 31 39 18 17 25 28 27 27 28 31 31 31 30 29 27 28 31 31 30 31 31 31 33 34 36 39 41 46 45 43 44 42
120 154 115 126 127 124 110 105 94 83 94 73 30 27 17 26 35 26 25 28 30 32 30 27 24 23 24 24 24 23 25 26 25 25 28 31 33 33 35 37 28 25 29 35
135 151 126 129 124 129 120 108 92 67 60 43 39 33 40 42 40 22 22 26 27 26 24 19 17 14 15 15 16 17 17 16 14 14 14 15 17 18 21 15 9 11 8 11
114 120 118 142 151 156 126 109 86 68 63 52 56 57 55 50 38 32 32 29 25 22 19 18 14 12 14 13 12 11 11 12 12 13 11 6 6 5 2 3 5 4 360 4
86 109 123 136 155 157 152 142 352 18 41 59 63 58 50 40 36 33 27 22 21 18 16 15 12 10 8 7 4 1 0 3 6 5 6 5 3 2 5 6 7 6 2 357
132 134 142 155 160 168 199 259 281 109 97 91 84 71 47 36 36 31 19 12 10 12 14 12 4 2 358 355 353 351 350 353 355 358 3 2 360 0 3 7 7 6 1 5
156 155 169 168 172 175 171 127 110 95 88 87 75 52 31 29 26 12 5 3 2 3 2 358 356 351 349 349 345 341 339 340 344 347 348 353 353 355 358 360 3 7 11 12
227 240 207 203 189 176 138 115 98 91 83 77 65 48 30 18 11 9 6 2 360 352 348 349 348 346 343 339 337 336 334 334 337 341 343 344 347 348 350 351 355 0 6 10
166 171 168 165 159 146 128 109 103 93 76 58 42 23 10 5 358 354 353 353 352 351 347 344 343 340 338 337 335 331 329 330 332 332 331 332 334 337 338 341 349 353 356 0
153 154 151 150 144 136 129 124 115 100 74 37 13 355 345 346 351 353 352 353 353 351 348 346 344 341 340 340 337 330 325 326 328 328 327 325 323 327 330 332 341 343 345 346
162 156 152 149 139 131 128 126 116 91 53 7 348 340 351 353 352 350 343 340 336 338 342 343 343 343 343 343 340 337 335 332 328 325 325 322 315 313 309 305 315 323 327 330
154 152 146 139 135 131 120 102 78 52 18 358 353 346 339 333 327 324 322 322 322 322 331 336 341 343 344 345 346 341 334 334 334 332 320 318 319 310 299 288 296 301 308 313
155 152 151 149 142 130 111 82 64 28 358 345 347 340 332 327 325 326 321 318 310 305 314 326 334 337 340 343 344 347 338 333 329 330 329 321 314 313 307 306 301 303 304 307
165 164 165 157 154 155 174 297 326 335 329 330 330 332 330 325 322 323 317 315 301 294 302 320 328 327 327 329 329 329 329 330 322 326 320 314 320 311 295 293 299 297 294 304
171 177 177 174 174 216 336 326 326 326 321 321 322 325 323 320 318 324 325 322 302 293 298 317 316 316 318 317 317 317 317 318 318 320 323 317 311 309 299 301 304 298 287 282
174 174 175 185 223 322 338 327 319 317 315 316 318 319 316 314 316 320 325 328 320 303 302 306 302 301 303 305 302 303 305 306 307 311 308 312 310 307 304 299 295 296 274 273
178 186 204 232 271 305 311 311 311 310 311 316 319 323 318 318 318 318 318 316 309 304 305 306 301 300 299 300 299 293 289 291 293 295 300 299 297 301 302 301 302 301 275 253